Two Harbors, MN

8:03 PM CDT on August 31, 2016 (GMT -0500)
Helgeson

Weather History for KTWM - December, 2012

Change the Weather History Date:

Wednesday, December 12, 2012

  Actual Average Record
Temperature  
Mean Temperature 14 °F -  
Max Temperature 30 °F 28 °F 50 °F (1998)
Min Temperature 1 °F 11 °F -18 °F (2000)
Degree Days  
Heating Degree Days 50    
Moisture  
Dew Point 11 °F    
Average Humidity 79    
Maximum Humidity 86    
Minimum Humidity 69    
Precipitation  
Precipitation 0.00 in - - ()
Sea Level Pressure  
Sea Level Pressure 29.90 in    
Wind  
Wind Speed 3 mph (ENE)    
Max Wind Speed 16 mph    
Max Gust Speed 21 mph    
Visibility 10 miles    
Events Snow    
Averages and records for this station are not official NWS values.
T = Trace of Precipitation, MM = Missing Value Source: NWS Daily Summary

Daily Weather History Graph

Daily Weather History Graph

Search for Another Location

Airport or City:

Trip Planner

Search our weather history database for the weather conditions in past years. The results will help you decide how hot, cold, wet, or windy it might be!

Date:

Astronomy

Dec. 12, 2012 Rise Set
Actual Time 7:44 AM CST 4:17 PM CST
Civil Twilight 7:08 AM CST 4:53 PM CST
Nautical Twilight 6:30 AM CST 5:31 PM CST
Astronomical Twilight 5:53 AM CST 6:08 PM CST
Moon 6:47 AM CST (12/12) 3:56 PM CST (12/12)
Length of Visible Light 9h 44m
Length of Day
8h 33m
Waning Crescent, 1% of the Moon is Illuminated
Dec 12
Waning Crescent
Dec 13
New
Dec 19
First Quarter
Dec 28
Full
Jan 4
Last Quarter

Hourly Weather History & Observations

Time (CST) Temp. Windchill Dew Point Humidity Pressure Visibility Wind Dir Wind Speed Gust Speed Precip Events Conditions
12:11 AM 3.2 °F -4.2 °F -2.2 °F 78% 29.94 in 10.0 mi WSW 3.5 mph - N/A   Clear
12:31 AM 3.2 °F -6.2 °F -2.2 °F 78% 29.95 in 10.0 mi WSW 4.6 mph - N/A   Clear
12:52 AM 3.2 °F - -2.2 °F 78% 29.95 in 10.0 mi Calm Calm - N/A   Clear
1:11 AM 1.4 °F - -2.2 °F 85% 29.95 in 10.0 mi Calm Calm - N/A   Clear
1:52 AM 1.4 °F - -2.2 °F 85% 29.96 in 10.0 mi Calm Calm - N/A   Clear
2:11 AM 3.2 °F - -2.2 °F 78% 29.96 in 10.0 mi Calm Calm - N/A   Clear
2:31 AM 3.2 °F - -2.2 °F 78% 29.97 in 10.0 mi Calm Calm - N/A   Clear
2:52 AM 1.4 °F - -5.8 °F 72% 29.97 in 10.0 mi Calm Calm - N/A   Clear
3:11 AM 1.4 °F - -5.8 °F 72% 29.97 in 10.0 mi Calm Calm - N/A   Scattered Clouds
3:31 AM 1.4 °F - -5.8 °F 72% 29.96 in 7.0 mi Calm Calm - N/A   Mostly Cloudy
3:52 AM 1.4 °F - -2.2 °F 85% 29.96 in 3.0 mi Calm Calm - N/A Snow Light Snow
4:11 AM 3.2 °F -4.2 °F -2.2 °F 78% 29.97 in 7.0 mi WNW 3.5 mph - N/A   Overcast
4:31 AM 6.8 °F -0.1 °F -0.4 °F 72% 29.98 in 10.0 mi WNW 3.5 mph - N/A   Overcast
4:52 AM 6.8 °F -0.1 °F -0.4 °F 72% 29.98 in 10.0 mi WNW 3.5 mph - N/A   Overcast
5:11 AM 6.8 °F - 1.4 °F 79% 29.98 in 10.0 mi Calm Calm - N/A   Overcast
5:51 AM 8.6 °F - 1.4 °F 73% 29.98 in 10.0 mi Calm Calm - N/A   Overcast
6:11 AM 6.8 °F - 1.4 °F 79% 29.97 in 10.0 mi Calm Calm - N/A   Overcast
6:32 AM 8.6 °F - 3.2 °F 79% 29.97 in 10.0 mi Calm Calm - N/A   Overcast
6:51 AM 6.8 °F - 1.4 °F 79% 29.97 in 10.0 mi Calm Calm - N/A   Overcast
7:11 AM 8.6 °F - 3.2 °F 79% 29.97 in 10.0 mi Calm Calm - N/A   Overcast
7:31 AM 8.6 °F - 3.2 °F 79% 29.97 in 10.0 mi Calm Calm - N/A   Overcast
7:51 AM 10.4 °F 4.0 °F 5.0 °F 79% 29.96 in 10.0 mi ENE 3.5 mph - N/A   Overcast
8:12 AM 10.4 °F 4.0 °F 6.8 °F 85% 29.96 in 10.0 mi NE 3.5 mph - N/A Snow Light Snow
8:31 AM 10.4 °F 4.0 °F 6.8 °F 85% 29.95 in 10.0 mi NE 3.5 mph - N/A   Scattered Clouds
8:51 AM 12.2 °F 6.1 °F 6.8 °F 79% 29.95 in 10.0 mi NE 3.5 mph - N/A   Clear
9:12 AM 12.2 °F 6.1 °F 8.6 °F 85% 29.95 in 10.0 mi NE 3.5 mph - N/A   Clear
9:31 AM 14.0 °F 6.5 °F 8.6 °F 79% 29.95 in 10.0 mi NE 4.6 mph - N/A   Clear
9:51 AM 15.8 °F 8.6 °F 8.6 °F 73% 29.95 in 10.0 mi ENE 4.6 mph - N/A   Clear
10:12 AM 15.8 °F 6.1 °F 10.4 °F 79% 29.94 in 10.0 mi ENE 6.9 mph - N/A   Clear
11:12 AM 19.4 °F 6.0 °F 15.8 °F 86% 29.91 in 10.0 mi ENE 13.8 mph - N/A   Mostly Cloudy
11:31 AM 21.2 °F 8.3 °F 15.8 °F 80% 29.89 in 10.0 mi ENE 13.8 mph - N/A   Mostly Cloudy
11:51 AM 21.2 °F 7.3 °F 15.8 °F 80% 29.89 in 10.0 mi ENE 16.1 mph 20.7 mph N/A   Mostly Cloudy
12:12 PM 21.2 °F 10.1 °F 17.6 °F 86% 29.89 in 10.0 mi East 10.4 mph - N/A   Mostly Cloudy
12:51 PM 23.0 °F 13.1 °F 17.6 °F 80% 29.87 in 10.0 mi East 9.2 mph - N/A   Overcast
1:12 PM 23.0 °F 12.4 °F 17.6 °F 80% 29.86 in 10.0 mi East 10.4 mph - N/A   Mostly Cloudy
1:31 PM 24.8 °F 16.9 °F 17.6 °F 74% 29.86 in 10.0 mi ESE 6.9 mph - N/A   Overcast
1:51 PM 24.8 °F 16.9 °F 17.6 °F 74% 29.86 in 10.0 mi East 6.9 mph - N/A   Overcast
2:12 PM 24.8 °F 16.1 °F 17.6 °F 74% 29.84 in 10.0 mi East 8.1 mph - N/A   Overcast
2:31 PM 24.8 °F 16.1 °F 17.6 °F 74% 29.84 in 10.0 mi East 8.1 mph - N/A   Overcast
2:51 PM 24.8 °F 17.9 °F 17.6 °F 74% 29.84 in 10.0 mi ESE 5.8 mph - N/A   Mostly Cloudy
3:12 PM 24.8 °F 16.1 °F 19.4 °F 80% 29.84 in 10.0 mi East 8.1 mph - N/A   Overcast
3:31 PM 24.8 °F 19.1 °F 19.4 °F 80% 29.84 in 10.0 mi East 4.6 mph - N/A   Scattered Clouds
3:51 PM 24.8 °F 19.1 °F 19.4 °F 80% 29.84 in 10.0 mi East 4.6 mph - N/A   Scattered Clouds
4:12 PM 24.8 °F 19.1 °F 19.4 °F 80% 29.83 in 10.0 mi ENE 4.6 mph - N/A   Mostly Cloudy
4:31 PM 24.8 °F - 19.4 °F 80% 29.83 in 10.0 mi Calm Calm - N/A   Scattered Clouds
4:51 PM 24.8 °F - 19.4 °F 80% 29.83 in 10.0 mi Calm Calm - N/A   Clear
5:31 PM 24.8 °F - 19.4 °F 80% 29.83 in 10.0 mi Calm Calm - N/A   Mostly Cloudy
5:51 PM 24.8 °F - 19.4 °F 80% 29.83 in 10.0 mi Calm Calm - N/A   Mostly Cloudy
6:51 PM 24.8 °F 20.5 °F 19.4 °F 80% 29.83 in 10.0 mi North 3.5 mph - N/A   Overcast
7:12 PM 24.8 °F 20.5 °F 19.4 °F 80% 29.84 in 10.0 mi North 3.5 mph - N/A   Overcast
7:51 PM 24.8 °F - 19.4 °F 80% 29.84 in 10.0 mi Calm Calm - N/A   Overcast
8:12 PM 24.8 °F - 19.4 °F 80% 29.84 in 10.0 mi Calm Calm - N/A   Overcast
8:51 PM 24.8 °F - 19.4 °F 80% 29.84 in 10.0 mi Calm Calm - N/A   Mostly Cloudy
9:12 PM 24.8 °F - 19.4 °F 80% 29.84 in 10.0 mi Calm Calm - N/A   Mostly Cloudy
9:31 PM 24.8 °F - 19.4 °F 80% 29.85 in 10.0 mi Calm Calm - N/A   Mostly Cloudy
9:51 PM 26.6 °F - 21.2 °F 80% 29.85 in 10.0 mi Calm Calm - N/A   Overcast
10:12 PM 26.6 °F - 21.2 °F 80% 29.85 in 10.0 mi Calm Calm - N/A   Overcast
10:51 PM 28.4 °F 23.3 °F 23.0 °F 80% 29.86 in 10.0 mi West 4.6 mph - N/A   Overcast
11:12 PM 28.4 °F 23.3 °F 21.2 °F 74% 29.86 in 10.0 mi WSW 4.6 mph - N/A   Mostly Cloudy
11:31 PM 28.4 °F 22.2 °F 21.2 °F 74% 29.86 in 10.0 mi WSW 5.8 mph - N/A   Overcast
11:51 PM 30.2 °F 25.4 °F 21.2 °F 69% 29.86 in 10.0 mi WSW 4.6 mph - N/A   Mostly Cloudy